When you browse on this site, cookies collect data to enhance your experience and personalize the content and advertising you see.
Visit our Privacy Policy to learn more. By continuing to use the site, you agree to this use of cookies and data.
  • In United Kingdom
  • List of Countries
  • For 7 days
  • Water Temperature
  • Weather Map
  • Weather Widgets
  • user-avatar
    Login

    Hourly Weather Kobyzhcha

    Today, 26 February, Wednesday

    Time Temperature Precipitation Wind Pressure Humidity
    00:00 +1°C° 0 mm 4 mps 741 mmHg 85%
    01:00 +1°C° 0 mm 4 mps 741 mmHg 83%
    02:00 +1°C° 0 mm 4 mps 740 mmHg 82%
    03:00 +1°C° 0 mm 4 mps 739 mmHg 82%
    04:00 +1°C° 0 mm 4 mps 739 mmHg 82%
    05:00 +1°C° 0 mm 4 mps 738 mmHg 81%
    06:00 +1°C° 0 mm 4 mps 738 mmHg 81%
    07:00 +1°C° 0 mm 5 mps 738 mmHg 81%
    08:00 +1°C° 0 mm 4 mps 737 mmHg 82%
    09:00 +3°C° 0 mm 4 mps 737 mmHg 78%
    10:00 +4°C° 0 mm 4 mps 737 mmHg 75%
    11:00 +5°C° 0 mm 4 mps 737 mmHg 72%
    12:00 +6°C° 0 mm 4 mps 737 mmHg 70%
    13:00 +7°C° 0 mm 4 mps 737 mmHg 69%
    14:00 +9°C° 0 mm 3 mps 736 mmHg 65%
    15:00 +8°C° 0 mm 2 mps 736 mmHg 69%
    16:00 +8°C° 0 mm 2 mps 736 mmHg 73%
    17:00 +8°C° 0 mm 2 mps 736 mmHg 77%
    18:00 +7°C° 0 mm 2 mps 736 mmHg 79%
    19:00 +7°C° 0 mm 2 mps 736 mmHg 81%
    20:00 +7°C° 0 mm 2 mps 736 mmHg 83%
    21:00 +7°C° 0.2 mm 2 mps 735 mmHg 85%
    22:00 +6°C° 0.2 mm 2 mps 735 mmHg 87%
    23:00 +5°C° 0.2 mm 3 mps 734 mmHg 89%

    Tomorrow, 27 February, Thursday

    Time Temperature Precipitation Wind Pressure Humidity
    00:00 +5°C° 0 mm 3 mps 734 mmHg 88%
    01:00 +5°C° 0 mm 3 mps 734 mmHg 87%
    02:00 +5°C° 0 mm 4 mps 734 mmHg 86%
    03:00 +5°C° 0 mm 3 mps 734 mmHg 87%
    04:00 +5°C° 0 mm 3 mps 734 mmHg 89%
    05:00 +4°C° 0 mm 3 mps 734 mmHg 91%
    06:00 +4°C° 0 mm 3 mps 734 mmHg 91%
    07:00 +4°C° 0 mm 3 mps 735 mmHg 92%
    08:00 +4°C° 0 mm 3 mps 735 mmHg 93%
    09:00 +5°C° 0.7 mm 2 mps 735 mmHg 91%
    10:00 +6°C° 0.7 mm 2 mps 735 mmHg 90%
    11:00 +6°C° 0.7 mm 2 mps 735 mmHg 88%
    12:00 +5°C° 0.3 mm 3 mps 735 mmHg 86%
    13:00 +5°C° 0.3 mm 4 mps 736 mmHg 83%
    14:00 +5°C° 0.3 mm 5 mps 736 mmHg 80%
    15:00 +3°C° 0.4 mm 5 mps 736 mmHg 80%
    16:00 +4°C° 0.4 mm 4 mps 736 mmHg 81%
    17:00 +3°C° 0.4 mm 4 mps 737 mmHg 81%
    18:00 +3°C° 0 mm 4 mps 737 mmHg 81%
    19:00 +3°C° 0 mm 3 mps 737 mmHg 81%
    20:00 +2°C° 0 mm 3 mps 737 mmHg 81%
    21:00 +2°C° 0 mm 3 mps 737 mmHg 80%
    22:00 +1°C° 0 mm 4 mps 737 mmHg 79%
    23:00 0°C° 0 mm 4 mps 737 mmHg 77%

    Day after tomorrow, 28 February, Friday

    Time Temperature Precipitation Wind Pressure Humidity
    00:00 0°C° 0 mm 4 mps 737 mmHg 77%
    01:00 0°C° 0 mm 4 mps 738 mmHg 77%
    02:00 -1°C° 0 mm 4 mps 738 mmHg 77%
    03:00 -1°C° 0 mm 4 mps 738 mmHg 79%
    04:00 -1°C° 0 mm 4 mps 738 mmHg 80%
    05:00 -2°C° 0 mm 4 mps 739 mmHg 82%
    06:00 -2°C° 0 mm 4 mps 739 mmHg 81%
    07:00 -2°C° 0 mm 4 mps 740 mmHg 80%
    08:00 -2°C° 0 mm 4 mps 741 mmHg 80%
    09:00 -1°C° 0 mm 4 mps 741 mmHg 73%
    10:00 0°C° 0 mm 5 mps 741 mmHg 67%
    11:00 +1°C° 0 mm 5 mps 742 mmHg 61%
    12:00 +2°C° 0 mm 5 mps 742 mmHg 59%
    13:00 +3°C° 0 mm 5 mps 742 mmHg 58%
    14:00 +3°C° 0 mm 5 mps 743 mmHg 56%
    15:00 +4°C° 0 mm 4 mps 743 mmHg 59%
    16:00 +4°C° 0 mm 3 mps 743 mmHg 61%
    17:00 +5°C° 0 mm 2 mps 743 mmHg 64%
    18:00 +4°C° 0 mm 2 mps 743 mmHg 67%
    19:00 +4°C° 0 mm 2 mps 744 mmHg 69%
    20:00 +3°C° 0 mm 2 mps 744 mmHg 72%
    21:00 +3°C° 0 mm 2 mps 744 mmHg 72%
    22:00 +4°C° 0 mm 1 mps 744 mmHg 73%
    23:00 +4°C° 0 mm 1 mps 745 mmHg 74%

    29 February, Saturday

    Time Temperature Precipitation Wind Pressure Humidity
    00:00 +4°C° 0 mm 1 mps 745 mmHg 77%
    01:00 +3°C° 0 mm 1 mps 745 mmHg 80%
    02:00 +3°C° 0 mm 1 mps 745 mmHg 82%
    03:00 +3°C° 0.3 mm 1 mps 745 mmHg 85%
    04:00 +3°C° 0.3 mm 1 mps 745 mmHg 89%
    05:00 +3°C° 0.3 mm 1 mps 745 mmHg 92%
    06:00 +2°C° 0.2 mm 2 mps 745 mmHg 90%
    07:00 +2°C° 0.2 mm 2 mps 746 mmHg 89%
    08:00 +2°C° 0.2 mm 2 mps 746 mmHg 87%
    09:00 +2°C° 0 mm 2 mps 746 mmHg 81%
    10:00 +2°C° 0 mm 3 mps 746 mmHg 74%
    11:00 +3°C° 0 mm 3 mps 747 mmHg 67%
    12:00 +3°C° 0 mm 3 mps 747 mmHg 65%
    13:00 +4°C° 0 mm 4 mps 747 mmHg 62%
    14:00 +4°C° 0 mm 4 mps 747 mmHg 60%
    15:00 +4°C° 0.1 mm 4 mps 747 mmHg 62%
    16:00 +3°C° 0.1 mm 4 mps 748 mmHg 64%
    17:00 +2°C° 0.1 mm 5 mps 748 mmHg 66%
    18:00 +1°C° 0 mm 4 mps 748 mmHg 70%
    19:00 0°C° 0 mm 4 mps 749 mmHg 74%
    20:00 0°C° 0 mm 3 mps 750 mmHg 78%
    21:00 0°C° 0 mm 3 mps 750 mmHg 78%
    22:00 -1°C° 0 mm 2 mps 750 mmHg 78%
    23:00 -1°C° 0 mm 2 mps 751 mmHg 79%

    1 March, Sunday

    Time Temperature Precipitation Wind Pressure Humidity
    00:00 -1°C° 0 mm 2 mps 751 mmHg 79%
    01:00 -1°C° 0 mm 2 mps 751 mmHg 79%
    02:00 -1°C° 0 mm 2 mps 751 mmHg 79%
    03:00 +1°C° 0 mm 1 mps 751 mmHg 79%
    04:00 +1°C° 0 mm 1 mps 752 mmHg 80%
    05:00 0°C° 0 mm 0 mps 752 mmHg 80%
    06:00 0°C° 0 mm 0 mps 752 mmHg 78%
    07:00 0°C° 0 mm 0 mps 752 mmHg 77%
    08:00 0°C° 0 mm 0 mps 753 mmHg 75%
    09:00 +2°C° 0 mm 1 mps 753 mmHg 69%
    10:00 +3°C° 0 mm 2 mps 753 mmHg 64%
    11:00 +4°C° 0 mm 2 mps 753 mmHg 58%
    12:00 +3°C° 0 mm 3 mps 752 mmHg 56%
    13:00 +4°C° 0 mm 3 mps 752 mmHg 54%
    14:00 +4°C° 0 mm 4 mps 752 mmHg 52%
    15:00 +4°C° 0 mm 4 mps 751 mmHg 54%
    16:00 +4°C° 0 mm 4 mps 751 mmHg 56%
    17:00 +3°C° 0 mm 4 mps 751 mmHg 58%
    18:00 +1°C° 0 mm 4 mps 751 mmHg 62%
    19:00 +1°C° 0 mm 5 mps 751 mmHg 65%
    20:00 0°C° 0 mm 5 mps 751 mmHg 68%
    21:00 -1°C° 0 mm 6 mps 751 mmHg 68%
    22:00 -1°C° 0 mm 6 mps 751 mmHg 67%
    23:00 -1°C° 0 mm 7 mps 750 mmHg 66%

    2 March, Monday

    Time Temperature Precipitation Wind Pressure Humidity
    00:00 -1°C° 0 mm 7 mps 750 mmHg 66%
    01:00 -1°C° 0 mm 7 mps 750 mmHg 67%
    02:00 -1°C° 0 mm 7 mps 750 mmHg 67%
    03:00 -1°C° 0 mm 7 mps 749 mmHg 70%
    04:00 -1°C° 0 mm 7 mps 749 mmHg 73%
    05:00 -1°C° 0 mm 7 mps 749 mmHg 76%
    06:00 -1°C° 0 mm 7 mps 749 mmHg 78%
    07:00 -1°C° 0 mm 7 mps 748 mmHg 79%
    08:00 0°C° 0 mm 7 mps 748 mmHg 80%
    09:00 +1°C° 0 mm 8 mps 748 mmHg 75%
    10:00 +2°C° 0 mm 8 mps 748 mmHg 71%
    11:00 +3°C° 0 mm 9 mps 748 mmHg 66%
    12:00 +4°C° 0 mm 8 mps 748 mmHg 66%
    13:00 +5°C° 0 mm 8 mps 747 mmHg 66%
    14:00 +5°C° 0 mm 8 mps 747 mmHg 67%
    15:00 +5°C° 0.1 mm 7 mps 747 mmHg 67%
    16:00 +5°C° 0.1 mm 6 mps 747 mmHg 67%
    17:00 +6°C° 0.1 mm 4 mps 747 mmHg 67%
    18:00 +5°C° 0.1 mm 5 mps 747 mmHg 68%
    19:00 +5°C° 0.1 mm 5 mps 747 mmHg 69%
    20:00 +4°C° 0.1 mm 6 mps 747 mmHg 71%
    21:00 +3°C° 0 mm 6 mps 747 mmHg 75%
    22:00 +3°C° 0 mm 6 mps 747 mmHg 79%
    23:00 +3°C° 0 mm 6 mps 747 mmHg 82%
    Show more